| time (UTC) | temp F | wind direction | speed MPH | gust MPH | rain 1hr in | rain 24hr in | rain mn in | humidity % | barometer mb |
| 20260902113002 | 0 | 0.0 | 0.0 | 0.00 | 0.08 | 0.00 | 1013.9 | ||
| 20260902111559 | 0 | 0.0 | 0.0 | 0.00 | 0.08 | 0.00 | 1013.7 | ||
| 20260902110053 | 0 | 0.0 | 0.0 | 0.00 | 0.08 | 0.00 | 1013.4 | ||
| 20260902104555 | 0 | 0.0 | 0.0 | 0.00 | 0.08 | 0.00 | 1013.3 | ||
| 20260902103049 | 0 | 0.0 | 0.0 | 0.00 | 0.08 | 0.00 | 1013.2 | ||
| 20260902101540 | 0 | 0.0 | 0.0 | 0.00 | 0.08 | 0.00 | 1013.1 | ||
| 20260902100044 | 0 | 0.0 | 0.0 | 0.00 | 0.08 | 0.00 | 1013.0 | ||
| 20260902094531 | 0 | 0.0 | 0.0 | 0.00 | 0.08 | 0.00 | 1012.9 | ||
| 20260902093027 | 0 | 0.0 | 0.0 | 0.00 | 0.08 | 0.00 | 1012.9 | ||
| 20260902091553 | 0 | 0.0 | 0.0 | 0.00 | 0.08 | 0.00 | 1013.0 | ||
| 20260902090019 | 0 | 0.0 | 0.0 | 0.00 | 0.08 | 0.00 | 1013.0 | ||
| 20260902084514 | 0 | 0.0 | 0.0 | 0.00 | 0.08 | 0.00 | 1012.8 | ||
| 20260902083009 | 0 | 0.0 | 0.0 | 0.00 | 0.08 | 0.00 | 1013.0 | ||
| 20260902081505 | 0 | 0.0 | 0.0 | 0.00 | 0.08 | 0.00 | 1013.0 | ||
| 20260902080114 | 0 | 0.0 | 0.0 | 0.00 | 0.08 | 0.00 | 1012.9 | ||
| 20260902080001 | 0 | 0.0 | 0.0 | 0.00 | 0.08 | 0.00 | 1012.9 | ||
| 20260902074559 | 0 | 0.0 | 0.0 | 0.00 | 0.08 | 0.00 | 1012.7 | ||
| 20260902073103 | 0 | 0.0 | 0.0 | 0.00 | 0.08 | 0.00 | 1012.6 | ||
| 20260902071606 | 0 | 0.0 | 0.0 | 0.00 | 0.08 | 0.00 | 1012.6 | ||
| 20260902070044 | 0 | 0.0 | 0.0 | 0.00 | 0.08 | 0.00 | 1012.7 | ||
| 20260902064539 | 0 | 0.0 | 0.0 | 0.00 | 0.08 | 0.00 | 1012.8 | ||
| 20260902063043 | 0 | 0.0 | 0.0 | 0.00 | 0.08 | 0.00 | 1013.1 | ||
| 20260902061541 | 0 | 0.0 | 0.0 | 0.00 | 0.08 | 0.00 | 1013.3 | ||
| 20260902060031 | 0 | 0.0 | 0.0 | 0.00 | 0.08 | 0.00 | 1013.5 | ||
| 20260902054534 | 0 | 0.0 | 0.0 | 0.00 | 0.08 | 0.00 | 1013.5 | ||
| 20260902053021 | 0 | 0.0 | 0.0 | 0.00 | 0.08 | 0.00 | 1013.4 | ||
| 20260902051512 | 0 | 0.0 | 0.0 | 0.00 | 0.08 | 0.00 | 1013.5 | ||
| 20260902050009 | 0 | 0.0 | 0.0 | 0.00 | 0.08 | 0.00 | 1013.6 | ||
| 20260902044503 | 0 | 0.0 | 0.0 | 0.00 | 0.08 | 0.00 | 1013.6 | ||
| 20260902043100 | 0 | 0.0 | 0.0 | 0.00 | 0.08 | 0.00 | 1013.7 | ||
| 20260902041557 | 0 | 0.0 | 0.0 | 0.00 | 0.08 | 0.00 | 1013.8 | ||
| 20260902040051 | 77 | 177 | 0.0 | 0.0 | 0.00 | 0.08 | 0.00 | 1 | 1013.9 |
| 20260902034546 | 77 | 177 | 0.0 | 0.0 | 0.00 | 0.08 | 0.08 | 1 | 1013.9 |
| 20260902033041 | 77 | 177 | 0.0 | 0.0 | 0.00 | 0.08 | 0.08 | 1 | 1014.0 |
| 20260902031537 | 77 | 177 | 0.0 | 0.0 | 0.00 | 0.08 | 0.08 | 1 | 1014.4 |
| 20260902030032 | 77 | 177 | 0.0 | 0.0 | 0.00 | 0.08 | 0.08 | 1 | 1014.5 |
| 20260902024527 | 78 | 177 | 0.0 | 0.0 | 0.00 | 0.08 | 0.08 | 1 | 1014.5 |
| 20260902023025 | 78 | 177 | 0.0 | 0.0 | 0.00 | 0.08 | 0.08 | 1 | 1014.5 |
| 20260902021525 | 78 | 177 | 0.0 | 0.0 | 0.00 | 0.08 | 0.08 | 1 | 1014.3 |
| 20260902020015 | 78 | 177 | 0.0 | 0.0 | 0.00 | 0.08 | 0.08 | 1 | 1014.3 |
| 20260902014511 | 78 | 177 | 0.0 | 0.0 | 0.00 | 0.08 | 0.08 | 1 | 1014.1 |
| 20260902013005 | 78 | 177 | 0.0 | 0.0 | 0.00 | 0.08 | 0.08 | 1 | 1013.9 |
| 20260902011606 | 79 | 177 | 0.0 | 0.0 | 0.00 | 0.08 | 0.08 | 1 | 1013.7 |
| 20260902010118 | 79 | 177 | 0.0 | 0.0 | 0.00 | 0.08 | 0.08 | 1 | 1013.7 |
| 20260902004551 | 79 | 177 | 0.0 | 0.0 | 0.00 | 0.08 | 0.08 | 1 | 1013.6 |
| 20260902003047 | 79 | 177 | 0.0 | 0.0 | 0.00 | 0.08 | 0.08 | 1 | 1013.7 |
| 20260902001543 | 80 | 177 | 0.0 | 0.0 | 0.00 | 0.08 | 0.08 | 1 | 1013.8 |
| 20260902000044 | 80 | 177 | 0.0 | 0.0 | 0.00 | 0.08 | 0.08 | 1 | 1013.7 |
| 20260901234533 | 81 | 177 | 0.0 | 0.0 | 0.00 | 0.08 | 0.08 | 1 | 1013.7 |
| 20260901233029 | 82 | 177 | 0.0 | 0.0 | 0.00 | 0.08 | 0.08 | 3 | 1013.6 |
| 20260901231526 | 83 | 177 | 0.0 | 0.0 | 0.00 | 0.08 | 0.08 | 13 | 1013.6 |
| 20260901230029 | 83 | 177 | 0.0 | 0.0 | 0.00 | 0.08 | 0.08 | 26 | 1013.4 |
| 20260901224522 | 84 | 181 | 0.0 | 0.0 | 0.00 | 0.08 | 0.08 | 37 | 1013.2 |
| 20260901223030 | 85 | 181 | 0.0 | 0.0 | 0.00 | 0.08 | 0.08 | 42 | 1013.1 |
| 20260901221509 | 85 | 172 | 0.0 | 0.0 | 0.00 | 0.08 | 0.08 | 44 | 1013.1 |
| 20260901220002 | 85 | 181 | 0.0 | 0.0 | 0.00 | 0.08 | 0.08 | 42 | 1013.2 |
| 20260901214558 | 84 | 171 | 0.0 | 0.0 | 0.00 | 0.08 | 0.08 | 30 | 1013.3 |
| 20260901213100 | 84 | 179 | 0.0 | 0.0 | 0.00 | 0.08 | 0.08 | 19 | 1013.3 |
| 20260901211549 | 84 | 184 | 0.0 | 0.0 | 0.00 | 0.08 | 0.08 | 18 | 1013.0 |
| 20260901210045 | 83 | 179 | 0.0 | 0.0 | 0.00 | 0.08 | 0.08 | 15 | 1012.8 |
| 20260901204540 | 84 | 180 | 0.0 | 0.0 | 0.00 | 0.09 | 0.08 | 14 | 1012.9 |
| 20260901203036 | 84 | 181 | 0.0 | 0.0 | 0.00 | 0.09 | 0.08 | 5 | 1012.7 |
| 20260901201531 | 84 | 195 | 0.0 | 0.0 | 0.00 | 0.09 | 0.08 | 17 | 1013.0 |
| 20260901200040 | 85 | 184 | 0.0 | 0.0 | 0.00 | 0.09 | 0.08 | 27 | 1013.2 |
| 20260901194521 | 86 | 188 | 0.0 | 0.0 | 0.00 | 0.09 | 0.08 | 38 | 1013.3 |
| 20260901193017 | 87 | 181 | 0.0 | 0.0 | 0.00 | 0.09 | 0.08 | 42 | 1013.3 |
| 20260901191520 | 88 | 183 | 0.0 | 0.0 | 0.00 | 0.09 | 0.08 | 50 | 1013.3 |
| 20260901190009 | 88 | 172 | 0.0 | 0.0 | 0.00 | 0.09 | 0.08 | 50 | 1013.6 |
| 20260901184504 | 89 | 177 | 0.0 | 1.0 | 0.00 | 0.09 | 0.08 | 53 | 1014.0 |
| 20260901183100 | 88 | 180 | 0.0 | 1.0 | 0.00 | 0.09 | 0.08 | 41 | 1014.1 |
| 20260901181555 | 87 | 200 | 0.0 | 1.0 | 0.00 | 0.09 | 0.08 | 37 | 1014.3 |
| 20260901180050 | 87 | 197 | 0.0 | 1.0 | 0.00 | 0.09 | 0.08 | 43 | 1014.6 |
| 20260901174557 | 87 | 177 | 0.0 | 2.0 | 0.00 | 0.09 | 0.08 | 32 | 1014.6 |
| 20260901173042 | 88 | 205 | 0.0 | 1.0 | 0.00 | 0.09 | 0.08 | 45 | 1014.4 |
| 20260901171539 | 87 | 212 | 0.0 | 2.0 | 0.00 | 0.09 | 0.08 | 20 | 1014.5 |
| 20260901170101 | 85 | 213 | 0.0 | 0.0 | 0.00 | 0.09 | 0.08 | 9 | 1014.7 |
| 20260901164527 | 84 | 186 | 0.0 | 0.0 | 0.00 | 0.15 | 0.08 | 1 | 1015.0 |
| 20260901163023 | 83 | 186 | 0.0 | 0.0 | 0.00 | 0.15 | 0.08 | 1 | 1014.9 |
| 20260901161519 | 82 | 181 | 0.0 | 0.0 | 0.08 | 0.15 | 0.08 | 1 | 1015.1 |
| 20260901160024 | 81 | 167 | 0.0 | 0.0 | 0.08 | 0.15 | 0.08 | 1 | 1015.1 |
| 20260901154510 | 80 | 186 | 0.0 | 0.0 | 0.08 | 0.69 | 0.08 | 1 | 1015.2 |
| 20260901153007 | 82 | 186 | 0.0 | 1.0 | 0.08 | 0.69 | 0.08 | 13 | 1015.3 |
| 20260901151600 | 86 | 181 | 0.0 | 3.0 | 0.00 | 0.61 | 0.00 | 38 | 1015.3 |
| 20260901150056 | 86 | 182 | 0.0 | 0.0 | 0.00 | 0.61 | 0.00 | 41 | 1015.2 |
| 20260901144553 | 87 | 171 | 0.0 | 0.0 | 0.00 | 0.61 | 0.00 | 46 | 1015.1 |
| 20260901143050 | 86 | 177 | 0.0 | 0.0 | 0.00 | 0.61 | 0.00 | 35 | 1014.9 |
| 20260901141545 | 86 | 177 | 0.0 | 0.0 | 0.00 | 0.61 | 0.00 | 31 | 1014.7 |
| 20260901140038 | 85 | 186 | 0.0 | 0.0 | 0.00 | 0.61 | 0.00 | 17 | 1014.7 |
| 20260901134533 | 85 | 172 | 0.0 | 0.0 | 0.00 | 0.61 | 0.00 | 15 | 1014.8 |
| 20260901133033 | 84 | 191 | 0.0 | 0.0 | 0.00 | 0.61 | 0.00 | 8 | 1014.5 |
| 20260901131534 | 83 | 174 | 0.0 | 0.0 | 0.00 | 0.61 | 0.00 | 1 | 1014.4 |
| 20260901130020 | 82 | 169 | 0.0 | 0.0 | 0.00 | 0.61 | 0.00 | 1 | 1014.5 |
| 20260901124516 | 80 | 171 | 0.0 | 0.0 | 0.00 | 0.61 | 0.00 | 1 | 1014.6 |
| 20260901123011 | 79 | 170 | 0.0 | 0.0 | 0.00 | 0.61 | 0.00 | 1 | 1014.6 |
| 20260901121508 | 77 | 169 | 0.0 | 0.0 | 0.00 | 0.61 | 0.00 | 1 | 1014.5 |
| 20260901120002 | 77 | 169 | 0.0 | 0.0 | 0.00 | 0.61 | 0.00 | 1 | 1014.3 |
| 20260901114600 | 0 | 0.0 | 0.0 | 0.00 | 0.61 | 0.00 | 1014.0 |